TimeCST,TemperatureF,Dew PointF,Humidity,Sea Level PressureIn,VisibilityMPH,Wind Direction,Wind SpeedMPH,Gust SpeedMPH,PrecipitationIn,Events,Conditions,WindDirDegrees,DateUTC
12:13 AM,12.2,8.6,85,30.25,10.0,SSW,6.9,-,N/A,,Clear,200,2012-11-27 06:13:00
12:34 AM,12.2,8.6,85,30.25,10.0,SSW,5.8,-,N/A,,Clear,210,2012-11-27 06:34:00
12:53 AM,12.2,8.6,85,30.24,10.0,SSW,6.9,-,N/A,,Clear,200,2012-11-27 06:53:00
1:13 AM,14.0,8.6,79,30.23,10.0,SSW,8.1,-,N/A,,Clear,200,2012-11-27 07:13:00
1:53 AM,15.8,10.4,79,30.22,10.0,SSW,8.1,-,N/A,,Clear,210,2012-11-27 07:53:00
2:13 AM,15.8,10.4,79,30.21,10.0,SSW,6.9,-,N/A,,Clear,210,2012-11-27 08:13:00
2:34 AM,15.8,10.4,79,30.21,10.0,SSW,8.1,-,N/A,,Clear,210,2012-11-27 08:34:00
2:53 AM,15.8,10.4,79,30.20,10.0,SSW,8.1,-,N/A,,Clear,210,2012-11-27 08:53:00
3:13 AM,15.8,10.4,79,30.20,10.0,SSW,9.2,-,N/A,,Clear,210,2012-11-27 09:13:00
3:34 AM,15.8,10.4,79,30.19,10.0,SSW,9.2,-,N/A,,Clear,210,2012-11-27 09:34:00
3:53 AM,15.8,10.4,79,30.17,10.0,SSW,8.1,-,N/A,,Clear,210,2012-11-27 09:53:00
4:13 AM,15.8,10.4,79,30.17,10.0,SSW,11.5,-,N/A,,Clear,200,2012-11-27 10:13:00
4:34 AM,14.0,10.4,86,30.16,10.0,SSW,10.4,-,N/A,,Clear,200,2012-11-27 10:34:00
4:53 AM,14.0,10.4,86,30.15,10.0,South,9.2,-,N/A,,Clear,190,2012-11-27 10:53:00
5:13 AM,12.2,8.6,85,30.15,10.0,South,8.1,-,N/A,,Clear,190,2012-11-27 11:13:00
5:53 AM,14.0,10.4,86,30.13,10.0,South,8.1,-,N/A,,Clear,190,2012-11-27 11:53:00
6:33 AM,14.0,10.4,86,30.12,10.0,South,8.1,-,N/A,,Clear,190,2012-11-27 12:33:00
6:53 AM,15.8,12.2,86,30.12,10.0,South,8.1,-,N/A,,Scattered Clouds,190,2012-11-27 12:53:00
7:13 AM,17.6,14.0,86,30.11,10.0,SSW,8.1,-,N/A,,Mostly Cloudy,200,2012-11-27 13:13:00
7:33 AM,19.4,15.8,86,30.11,10.0,SSW,11.5,-,N/A,,Overcast,200,2012-11-27 13:33:00
7:53 AM,21.2,17.6,86,30.10,10.0,SSW,9.2,-,N/A,,Overcast,210,2012-11-27 13:53:00
8:13 AM,21.2,17.6,86,30.10,10.0,SSW,10.4,-,N/A,,Overcast,210,2012-11-27 14:13:00
8:33 AM,21.2,17.6,86,30.10,10.0,SSW,10.4,-,N/A,,Overcast,210,2012-11-27 14:33:00
8:53 AM,21.2,17.6,86,30.10,10.0,SSW,11.5,-,N/A,,Overcast,210,2012-11-27 14:53:00
9:33 AM,24.8,19.4,80,30.10,10.0,SW,10.4,-,N/A,,Overcast,220,2012-11-27 15:33:00
9:53 AM,26.6,19.4,74,30.10,10.0,SW,9.2,-,N/A,,Overcast,220,2012-11-27 15:53:00
10:14 AM,28.4,21.2,74,30.10,10.0,SW,8.1,-,N/A,,Scattered Clouds,220,2012-11-27 16:14:00
10:33 AM,28.4,21.2,74,30.09,10.0,SW,9.2,-,N/A,,Clear,220,2012-11-27 16:33:00
10:53 AM,30.2,21.2,69,30.09,10.0,WSW,12.7,16.1,N/A,,Clear,240,2012-11-27 16:53:00
11:14 AM,30.2,21.2,69,30.09,10.0,WSW,13.8,-,N/A,,Clear,250,2012-11-27 17:14:00
11:33 AM,30.2,23.0,75,30.08,10.0,WSW,13.8,-,N/A,,Clear,240,2012-11-27 17:33:00
11:53 AM,30.2,23.0,75,30.07,10.0,WSW,12.7,-,N/A,,Clear,240,2012-11-27 17:53:00
12:14 PM,32.0,23.0,69,30.07,10.0,West,11.5,-,N/A,,Clear,260,2012-11-27 18:14:00
12:33 PM,33.8,23.0,65,30.07,10.0,West,9.2,-,N/A,,Clear,270,2012-11-27 18:33:00
12:53 PM,33.8,24.8,70,30.07,10.0,West,9.2,-,N/A,,Clear,280,2012-11-27 18:53:00
1:14 PM,33.8,24.8,70,30.06,10.0,WNW,11.5,-,N/A,,Clear,290,2012-11-27 19:14:00
1:33 PM,33.8,24.8,70,30.06,10.0,West,10.4,-,N/A,,Clear,280,2012-11-27 19:33:00
1:53 PM,33.8,24.8,70,30.07,10.0,WNW,12.7,-,N/A,,Clear,290,2012-11-27 19:53:00
2:14 PM,33.8,24.8,70,30.07,10.0,NW,11.5,16.1,N/A,,Clear,310,2012-11-27 20:14:00
2:33 PM,33.8,24.8,70,30.07,10.0,WNW,12.7,-,N/A,,Clear,290,2012-11-27 20:33:00
2:53 PM,33.8,24.8,70,30.08,10.0,NW,12.7,18.4,N/A,,Clear,310,2012-11-27 20:53:00
3:14 PM,32.0,23.0,69,30.08,10.0,NW,11.5,-,N/A,,Clear,310,2012-11-27 21:14:00
3:53 PM,30.2,23.0,75,30.10,10.0,NW,9.2,-,N/A,,Clear,320,2012-11-27 21:53:00
4:14 PM,30.2,23.0,75,30.11,10.0,WNW,9.2,-,N/A,,Clear,300,2012-11-27 22:14:00
4:33 PM,28.4,21.2,74,30.12,10.0,WNW,8.1,-,N/A,,Clear,300,2012-11-27 22:33:00
4:53 PM,26.6,21.2,80,30.12,10.0,WNW,9.2,-,N/A,,Clear,300,2012-11-27 22:53:00
5:13 PM,24.8,21.2,86,30.13,10.0,WNW,8.1,-,N/A,,Clear,300,2012-11-27 23:13:00
5:33 PM,23.0,19.4,86,30.13,10.0,WNW,6.9,-,N/A,,Clear,300,2012-11-27 23:33:00
5:54 PM,24.8,21.2,86,30.14,10.0,NW,10.4,-,N/A,,Clear,310,2012-11-27 23:54:00
6:13 PM,23.0,21.2,93,30.15,10.0,NW,8.1,-,N/A,,Scattered Clouds,310,2012-11-28 00:13:00
6:54 PM,24.8,21.2,86,30.16,10.0,WNW,11.5,-,N/A,,Mostly Cloudy,290,2012-11-28 00:54:00
7:13 PM,24.8,21.2,86,30.17,10.0,NW,12.7,-,N/A,,Mostly Cloudy,320,2012-11-28 01:13:00
7:33 PM,24.8,21.2,86,30.17,10.0,NW,13.8,-,N/A,,Mostly Cloudy,310,2012-11-28 01:33:00
7:54 PM,24.8,21.2,86,30.18,10.0,WNW,16.1,21.9,N/A,,Overcast,300,2012-11-28 01:54:00
8:13 PM,24.8,21.2,86,30.19,10.0,WNW,15.0,-,N/A,,Overcast,300,2012-11-28 02:13:00
8:33 PM,24.8,21.2,86,30.20,10.0,NW,17.3,21.9,N/A,,Overcast,310,2012-11-28 02:33:00
8:54 PM,24.8,19.4,80,30.21,10.0,NW,12.7,-,N/A,,Overcast,320,2012-11-28 02:54:00
9:13 PM,24.8,19.4,80,30.21,10.0,NNW,16.1,-,N/A,,Overcast,330,2012-11-28 03:13:00
9:33 PM,24.8,19.4,80,30.22,10.0,NW,9.2,18.4,N/A,,Overcast,320,2012-11-28 03:33:00
9:53 PM,24.8,21.2,86,30.22,10.0,NW,9.2,-,N/A,,Overcast,310,2012-11-28 03:53:00
10:13 PM,24.8,21.2,86,30.22,10.0,WNW,9.2,-,N/A,,Overcast,300,2012-11-28 04:13:00
10:33 PM,26.6,21.2,80,30.23,10.0,WNW,9.2,-,N/A,,Overcast,300,2012-11-28 04:33:00
10:53 PM,26.6,21.2,80,30.23,10.0,West,8.1,-,N/A,,Overcast,280,2012-11-28 04:53:00
11:13 PM,26.6,21.2,80,30.23,10.0,West,6.9,-,N/A,,Overcast,280,2012-11-28 05:13:00
11:33 PM,26.6,21.2,80,30.23,10.0,West,5.8,-,N/A,,Overcast,280,2012-11-28 05:33:00
11:53 PM,26.6,21.2,80,30.24,10.0,WNW,6.9,-,N/A,,Overcast,290,2012-11-28 05:53:00